Laramie, WY

10:04 PM MDT on March 26, 2017 (GMT -0600)
Laramie Regional

Weather History for KLAR - July, 2012

Change the Weather History Date:

Tuesday, July 17, 2012

  Actual Average Record
Temperature  
Mean Temperature 66 °F 65 °F  
Max Temperature 81 °F 81 °F 90 °F (1977)
Min Temperature 51 °F 49 °F 41 °F (1992)
Degree Days  
Heating Degree Days 0 2  
Month to date heating degree days 11 44  
Since 1 June heating degree days 93 285  
Since 1 July heating degree days 11 44  
Cooling Degree Days 1 1  
Month to date cooling degree days 54 17  
Year to date cooling degree days 116 24  
Since 1 June cooling degree days 116 24  
Growing Degree Days 16 (Base 50)    
Moisture  
Dew Point 46 °F    
Average Humidity 58    
Maximum Humidity 96    
Minimum Humidity 19    
Precipitation  
Precipitation 0.03 in 0.05 in 0.41 in (2000)
Month to date precipitation 0.90 0.73  
Year to date precipitation 3.50 6.22  
Sea Level Pressure  
Sea Level Pressure 29.90 in    
Wind  
Wind Speed 6 mph (SSE)    
Max Wind Speed 18 mph    
Max Gust Speed 22 mph    
Visibility 10 miles    
Events Rain , Thunderstorm    
T = Trace of Precipitation, MM = Missing Value Source: NWS Daily Summary

Daily Weather History Graph

Daily Weather History Graph

Search for Another Location

Airport or City:

Trip Planner

Search our weather history database for the weather conditions in past years. The results will help you decide how hot, cold, wet, or windy it might be!

Date:

Astronomy

Jul. 17, 2012 Rise Set
Actual Time 5:44 AM MDT 8:32 PM MDT
Civil Twilight 5:12 AM MDT 9:05 PM MDT
Nautical Twilight 4:31 AM MDT 9:46 PM MDT
Astronomical Twilight 3:43 AM MDT 10:32 PM MDT
Moon 4:23 AM MDT (7/17) 7:23 PM MDT (7/17)
Length of Visible Light 15h 53m
Length of Day
14h 48m
Waning Crescent, 2% of the Moon is Illuminated
Jul 17
Waning Crescent
Jul 18
New
Jul 26
First Quarter
Aug 1
Full
Aug 9
Last Quarter

Hourly Weather History & Observations

Time (MDT) Temp. Dew Point Humidity Pressure Visibility Wind Dir Wind Speed Gust Speed Precip Events Conditions
12:53 AM 52.0 °F 50.0 °F 93% 29.83 in 10.0 mi WSW 6.9 mph - N/A   Clear
1:53 AM 53.1 °F 48.0 °F 83% 29.81 in 10.0 mi WSW 11.5 mph - N/A   Clear
2:53 AM 53.1 °F 48.0 °F 83% 29.80 in 10.0 mi West 9.2 mph - N/A   Mostly Cloudy
3:53 AM 54.0 °F 46.9 °F 77% 29.86 in 10.0 mi NE 3.5 mph - N/A   Clear
4:53 AM 52.0 °F 48.0 °F 86% 29.88 in 10.0 mi SE 9.2 mph - N/A   Clear
5:53 AM 54.0 °F 48.0 °F 80% 29.90 in 10.0 mi ESE 5.8 mph - N/A   Clear
6:53 AM 54.0 °F 48.9 °F 83% 29.93 in 10.0 mi SSE 4.6 mph - N/A   Clear
7:53 AM 59.0 °F 48.9 °F 69% 29.92 in 10.0 mi Calm Calm - N/A   Scattered Clouds
8:53 AM 61.0 °F 50.0 °F 67% 29.93 in 10.0 mi Calm Calm - N/A   Mostly Cloudy
9:53 AM 68.0 °F 46.9 °F 47% 29.92 in 10.0 mi Calm Calm - N/A   Clear
10:53 AM 72.0 °F 45.0 °F 38% 29.90 in 10.0 mi North 4.6 mph - N/A   Clear
11:53 AM 75.0 °F 46.0 °F 36% 29.90 in 10.0 mi NNE 8.1 mph - N/A   Clear
12:53 PM 75.9 °F 46.0 °F 35% 29.90 in 10.0 mi Variable 6.9 mph - N/A   Clear
1:53 PM 77.0 °F 43.0 °F 30% 29.88 in 10.0 mi Calm Calm - N/A   Partly Cloudy
2:53 PM 73.9 °F 46.0 °F 37% 29.89 in 8.0 mi North 5.8 mph - 0.02 in Rain Light Rain
3:11 PM 69.8 °F 46.4 °F 43% 30.22 in 10.0 mi South 15.0 mph 21.9 mph 0.01 in Rain , Thunderstorm Light Thunderstorms and Rain
3:29 PM 73.4 °F 48.2 °F 41% 30.21 in 10.0 mi SE 9.2 mph 20.7 mph 0.01 in   Scattered Clouds
3:53 PM 78.1 °F 43.0 °F 29% 29.86 in 10.0 mi South 5.8 mph - 0.01 in   Clear
4:53 PM 79.0 °F 39.0 °F 24% 29.83 in 10.0 mi Variable 3.5 mph - N/A   Partly Cloudy
5:53 PM 77.0 °F 43.0 °F 30% 29.83 in 10.0 mi NE 8.1 mph - N/A   Scattered Clouds
6:53 PM 79.0 °F 41.0 °F 26% 29.82 in 10.0 mi East 8.1 mph - N/A   Mostly Cloudy
7:53 PM 78.1 °F 33.1 °F 19% 29.82 in 10.0 mi WNW 4.6 mph - N/A   Scattered Clouds
8:53 PM 72.0 °F 46.9 °F 41% 29.86 in 10.0 mi SSE 8.1 mph 19.6 mph N/A   Mostly Cloudy
9:53 PM 66.9 °F 48.9 °F 52% 29.86 in 10.0 mi SSE 10.4 mph - N/A   Partly Cloudy
10:53 PM 62.1 °F 48.9 °F 62% 29.88 in 10.0 mi South 8.1 mph - N/A   Scattered Clouds
11:53 PM 59.0 °F 48.9 °F 69% 29.88 in 10.0 mi SSW 4.6 mph - N/A   Clear